This demonstration page uses our WeatherBlox Daily Observations layout. Learn more.

Hourly Observations for October 9, 2015

Temp ( °F °C ) Dew Point ( °F °C ) Humidity (%) Winds ( mph kmh ) Pressure ( in mb ) Visibility ( mi km ) Precip ( " mm )
12:15 am 00:15 Partly Cloudy 52 11 50 10 94 94 NNW 7 11 30.27 1025 10 16.09344 0 0
12:35 am 00:35 Clear 52 11 48 9 88 88 NNW 7 11 30.27 1025 10 16.09344 0 0
12:55 am 00:55 Clear 52 11 48 9 88 88 NNW 7 11 30.27 1025 10 16.09344 0 0
1:15 am 01:15 Clear 52 11 48 9 88 88 NNW 8 13 30.27 1025 10 16.09344 0 0
1:35 am 01:35 Clear 50 10 48 9 94 94 NNW 6 9 30.27 1025 10 16.09344 0 0
1:55 am 01:55 Clear 50 10 48 9 94 94 Calm 30.27 1025 10 16.09344 0 0
2:15 am 02:15 Clear 48 9 46 8 94 94 Calm 30.27 1025 10 16.09344 0 0
2:35 am 02:35 Clear 48 9 46 8 94 94 W 3 6 30.3 1026 10 16.09344 0 0
2:55 am 02:55 Clear 48 9 46 8 94 94 WNW 3 6 30.3 1026 10 16.09344 0 0
3:15 am 03:15 Clear 48 9 46 8 94 94 WNW 3 6 30.3 1026 10 16.09344 0 0
3:35 am 03:35 Clear 48 9 46 8 94 94 WNW 3 6 30.3 1026 10 16.09344 0 0
3:55 am 03:55 Clear 46 8 45 7 93 93 W 6 9 30.33 1027 10 16.09344 0 0
4:15 am 04:15 Clear 46 8 45 7 93 93 W 7 11 30.33 1027 10 16.09344 0 0
4:35 am 04:35 Clear 46 8 45 7 93 93 W 3 6 30.33 1027 10 16.09344 0 0
4:55 am 04:55 Clear 45 7 45 7 100 100 Calm 30.36 1028 10 16.09344 0 0
5:15 am 05:15 Clear 46 8 45 7 93 93 Calm 30.36 1028 10 16.09344 0 0
5:35 am 05:35 Clear 45 7 45 7 100 100 NNW 3 6 30.36 1028 10 16.09344 0 0
5:55 am 05:55 Clear 43 6 43 6 100 100 Calm 30.36 1028 7 11.265408 0 0
6:15 am 06:15 Clear 45 7 43 6 93 93 NW 3 6 30.36 1028 10 16.09344 0 0
6:35 am 06:35 Clear 45 7 43 6 93 93 NW 6 9 30.36 1028 10 16.09344 0 0
6:55 am 06:55 Clear 45 7 43 6 93 93 NW 5 7 30.39 1029 10 16.09344 0 0
7:15 am 07:15 Partly Cloudy with Mist and Fog 41 5 41 5 100 100 Calm 30.42 1030 5 8.04672 0 0
7:35 am 07:35 Cloudy 43 6 43 6 100 100 Calm 30.39 1029 10 16.09344 0 0
7:55 am 07:55 Cloudy 45 7 43 6 93 93 Calm 30.39 1029 10 16.09344 0 0
8:15 am 08:15 Cloudy with Mist and Fog 46 8 45 7 93 93 Calm 30.39 1029 5 8.04672 0 0
8:35 am 08:35 Cloudy with Mist and Fog 46 8 46 8 100 100 Calm 30.42 1030 1 1.609344 0 0
8:55 am 08:55 Cloudy with Mist and Fog 46 8 46 8 100 100 NNW 3 6 30.42 1030 2 3.218688 0 0
9:15 am 09:15 Cloudy with Mist and Fog 48 9 46 8 94 94 N 3 6 30.42 1030 1 1.609344 0 0
9:35 am 09:35 Cloudy with Mist and Fog 48 9 46 8 94 94 Calm 30.42 1030 3 4.828032 0 0
9:55 am 09:55 Cloudy with Mist and Fog 48 9 48 9 100 100 Calm 30.42 1030 5 8.04672 0 0
10:15 am 10:15 Partly Cloudy 50 10 50 10 100 100 Calm 30.39 1029 10 16.09344 0 0
10:35 am 10:35 Sunny 54 12 50 10 88 88 Calm 30.39 1029 10 16.09344 0 0
10:55 am 10:55 Sunny 55 13 48 9 77 77 Calm 30.36 1028 10 16.09344 0 0
11:15 am 11:15 Sunny 57 14 48 9 72 72 Calm 30.36 1028 10 16.09344 0 0
11:35 am 11:35 Sunny 57 14 48 9 72 72 Calm 30.36 1028 10 16.09344 0 0
11:55 am 11:55 Sunny 61 16 48 9 63 63 Calm 30.36 1028 10 16.09344 0 0
12:15 pm 12:15 Sunny 61 16 46 8 59 59 Calm 30.3 1026 10 16.09344 0 0
12:35 pm 12:35 Sunny 63 17 45 7 52 52 Calm 30.3 1026 10 16.09344 0 0
12:55 pm 12:55 Sunny 64 18 45 7 49 49 Calm 30.3 1026 10 16.09344 0 0
1:15 pm 13:15 Sunny 64 18 45 7 49 49 SW 5 7 30.27 1025 10 16.09344 0 0
1:35 pm 13:35 Partly Cloudy 64 18 45 7 49 49 WNW 3 6 30.27 1025 10 16.09344 0 0
1:55 pm 13:55 Partly Cloudy 66 19 43 6 43 43 Calm 30.24 1024 10 16.09344 0 0
2:15 pm 14:15 Partly Cloudy 68 20 41 5 38 38 WNW 3 6 30.21 1023 10 16.09344 0 0
2:35 pm 14:35 Partly Cloudy 66 19 41 5 40 40 Calm 30.21 1023 10 16.09344 0 0
2:55 pm 14:55 Partly Cloudy 68 20 41 5 38 38 Calm 30.21 1023 10 16.09344 0 0
3:15 pm 15:15 Partly Cloudy 68 20 39 4 35 35 WSW 6 9 30.18 1022 10 16.09344 0 0
3:35 pm 15:35 Sunny 70 21 39 4 33 33 W 5 7 30.18 1022 10 16.09344 0 0
3:55 pm 15:55 Sunny 68 20 39 4 35 35 WSW 3 6 30.18 1022 10 16.09344 0 0
4:15 pm 16:15 Sunny 70 21 39 4 33 33 Calm 30.18 1022 10 16.09344 0 0
4:35 pm 16:35 Sunny 68 20 39 4 35 35 S 3 6 30.18 1022 10 16.09344 0 0
4:55 pm 16:55 Sunny 70 21 39 4 33 33 W 3 6 30.18 1022 10 16.09344 0 0
5:15 pm 17:15 Sunny 68 20 39 4 35 35 Calm 30.15 1021 10 16.09344 0 0
5:35 pm 17:35 Sunny 68 20 39 4 35 35 Calm 30.15 1021 10 16.09344 0 0
5:55 pm 17:55 Sunny 68 20 39 4 35 35 Calm 30.15 1021 10 16.09344 0 0
6:15 pm 18:15 Sunny 66 19 41 5 40 40 Calm 30.15 1021 10 16.09344 0 0
6:35 pm 18:35 Sunny 66 19 41 5 40 40 Calm 30.15 1021 10 16.09344 0 0
6:55 pm 18:55 Sunny 64 18 43 6 46 46 Calm 30.18 1022 10 16.09344 0 0
7:15 pm 19:15 Clear 63 17 43 6 49 49 SSW 3 6 30.18 1022 10 16.09344 0 0
7:35 pm 19:35 Clear 63 17 43 6 49 49 SSW 5 7 30.15 1021 10 16.09344 0 0
7:55 pm 19:55 Clear 59 15 45 7 59 59 Calm 30.18 1022 10 16.09344 0 0
8:15 pm 20:15 Clear 59 15 43 6 55 55 Calm 30.18 1022 10 16.09344 0 0
8:35 pm 20:35 Clear 59 15 43 6 55 55 SSW 5 7 30.15 1021 10 16.09344 0 0
8:55 pm 20:55 Clear 59 15 43 6 55 55 SSW 5 7 30.18 1022 10 16.09344 0 0
9:15 pm 21:15 Clear 59 15 43 6 55 55 Calm 30.18 1022 10 16.09344 0 0
9:35 pm 21:35 Clear 55 13 43 6 63 63 SSE 3 6 30.21 1023 10 16.09344 0 0
9:55 pm 21:55 Clear 55 13 43 6 63 63 SSE 5 7 30.21 1023 10 16.09344 0 0
10:15 pm 22:15 Clear 55 13 43 6 63 63 Calm 30.21 1023 10 16.09344 0 0
10:35 pm 22:35 Clear 55 13 43 6 63 63 SSE 5 7 30.21 1023 10 16.09344 0 0
10:55 pm 22:55 Clear 52 11 41 5 67 67 SSE 6 9 30.18 1022 10 16.09344 0 0
11:15 pm 23:15 Clear 54 12 43 6 67 67 SSE 5 7 30.18 1022 10 16.09344 0 0
11:35 pm 23:35 Clear 52 11 41 5 67 67 SSE 6 9 30.18 1022 10 16.09344 0 0
11:55 pm 23:55 Clear 50 10 41 5 71 71 SSE 3 6 30.21 1023 10 16.09344 0 0

Powered by AerisWeather